Location: Bühlhof
(48.7849°N, 8.6361°E)
Time: 00:38:01
(UTC+00:00)

Cosmos 2333 Rocket - Pass Details

Date: 19 January 2026
Orbit: 839 x 863 km, 70.8° (Epoch: 17 February)

Event Time Altitude Azimuth Distance (km) Brightness Sun altitude
Rises 17:59:27 0° 334° (NNW) 3,447 5.6 -18.8°
Reaches altitude 10° 18:03:09 10° 358° (N) 2,502 4.6 -19.4°
Enters shadow 18:05:40 15° 24° (NNE) 2,185 4.0 -19.8°
